#timestamp,LO_Frequency,Hit,StdDev 
1583799735.6,286046995.4,P
1583799755.5,286046995.7,P
1583799775.3,286046995.9,P
1583799795.2,286046996.1,Y
1583799815.9,286047000.5,P
1583799835.7,286047000.9,N
1583799855.6,286047002.0,N
1583799875.4,286047001.6,N
1583799895.2,286047002.2,N
1583799915.1,286047002.6,N
1583799916.0,286047002.6,N
1583799935.8,286047002.2,N
1583799955.7,286047001.6,N
1583799975.5,286047004.4,N
1583799995.3,286047003.0,N
1583800015.2,286047004.5,N
1583800035.0,286047003.1,N
1583800035.9,286047003.1,N
1583800055.7,286047001.6,N
1583800075.6,286047002.1,N
1583800095.4,286047003.2,N
1583800115.3,286047002.9,N
1583800135.1,286047002.9,N
1583800136.0,286047002.9,N
1583800155.8,286047005.9,Y
1583800175.7,286047005.9,P
1583800195.5,286047003.1,N
1583800215.4,286047004.2,N
1583800235.2,286047001.5,N
1583800255.0,286047001.9,N
1583800255.9,286047001.9,N
1583800275.8,286047001.3,N
1583800295.6,286047004.8,Y
1583800315.4,286047004.3,P
1583800335.3,286047003.4,P
1583800355.1,286047004.2,P
1583800375.9,286047001.5,N
1583800395.7,286047002.6,N
1583800415.5,286047000.1,N
1583800435.4,286047000.8,N
1583800455.2,286046996.6,N
1583800475.0,286046997.3,N
1583800476.0,286046997.3,N
1583800495.8,286046996.5,N
1583800515.6,286046998.9,N
1583800535.5,286046999.2,N
1583800555.3,286046996.8,N
1583800575.1,286046998.2,N
1583800595.9,286047000.3,N
1583800615.7,286047002.4,N
1583800635.6,286046998.3,N
1583800655.4,286047000.3,N
1583800675.2,286047000.3,N
1583800695.1,286046999.7,N
1583800696.0,286046999.7,N
1583800715.8,286047001.7,N
1583800735.6,286047001.6,N
1583800755.5,286047002.3,N
1583800775.3,286047011.9,Y
1583800795.2,286047004.0,P
1583800815.9,286047003.4,N
1583800835.7,286047004.8,N
1583800855.6,286047004.6,N
1583800875.4,286047004.8,N
1583800895.2,286047003.7,N
1583800915.1,286047004.2,N
1583800916.0,286047004.2,Y
1583800935.8,286046998.7,P
1583800955.7,286046998.5,N
1583800975.5,286046998.5,N
1583800995.3,286046998.8,N
1583801015.2,286046998.8,N
1583801035.0,286046998.9,N
1583801035.9,286046998.9,N
1583801055.8,286046999.3,N
1583801075.6,286046998.6,N
1583801095.4,286046999.6,N
1583801115.3,286046997.9,N
1583801135.1,286046995.4,Y
1583801155.8,286046997.3,P
1583801175.7,286046996.7,P
1583801195.5,286046998.3,N
1583801215.4,286047001.1,N
1583801235.2,286046998.3,N
1583801255.0,286047002.7,N
1583801255.9,286047002.7,N
1583801275.8,286046999.7,N
1583801295.6,286046999.7,N
1583801315.4,286047000.5,N
1583801335.3,286046998.2,N
1583801355.1,286047000.0,N
1583801375.9,286047000.4,N
1583801395.7,286047001.1,N
1583801415.5,286046999.5,N
1583801435.4,286046996.9,N
1583801455.2,286046997.9,N
1583801475.1,286046996.8,N
1583801476.0,286046996.8,N
1583801495.8,286046997.8,N
1583801515.6,286046995.0,N
1583801535.5,286046997.5,N
1583801555.3,286046995.8,N
1583801575.2,286046993.7,Y
1583801595.9,286046996.1,P
1583801615.7,286046993.7,P
1583801635.6,286046995.6,N
1583801655.4,286046997.1,N
1583801675.2,286046996.7,N
1583801695.1,286046997.3,N
1583801696.0,286046997.3,N
1583801715.8,286046999.3,N
1583801735.7,286047000.4,N
1583801755.5,286047002.5,N
1583801775.3,286047002.4,N
1583801795.2,286047002.4,N
1583801815.0,286047000.1,N
1583801815.9,286047000.1,N
1583801835.8,286046998.6,N
1583801855.6,286046998.2,N
1583801875.4,286047000.6,N
1583801895.3,286047002.5,N
1583801915.1,286047001.3,N
1583801935.8,286047003.6,N
1583801955.7,286047003.2,N
1583801975.5,286047001.4,N
1583801995.4,286046999.8,N
